Tracking 28327 objects as of 1-Dec-2023
HD Live streaming from Space Station
objects crossing your sky now

GORIZONT 6

Track GORIZONT 6 now!
GORIZONT 6 is classified as:


NORAD ID: 13624
Int'l Code: 1982-103A
Perigee: 35,769.5 km
Apogee: 35,785.1 km
Inclination: 9.4 °
Period: 1,435.3 minutes
Semi major axis: 42148 km
RCS: 3.1622 m2 (large)
Launch date: October 20, 1982
Source: Commonwealth of Independent States (former USSR) (CIS)
Launch site: TYURATAM MISSILE AND SPACE COMPLEX (TTMTR)
Your satellite tracking list
Your tracking list is empty




NASA's NSSDC Master Catalog

Two Line Element Set (TLE):
1 13624U 82103A   23333.36742563 -.00000280  00000-0  00000-0 0  9991
2 13624   9.3730 309.2466 0001841 267.0732 294.8269  1.00330443111619
Source of the keplerian elements: AFSPC